Location: 22
(39.7117°N, 89.5929°W)
Time: 06:35:19
(UTC-05:00)

ISS - Pass Details

Date: 03 October 2021
Orbit: 417 x 423 km, 51.6° (Epoch: 16 October)

Event Time Altitude Azimuth Distance (km) Brightness Sun altitude
Rises 19:29:06 0° 312° (NW) 2,363 0.9 -10.8°
Reaches altitude 10° 19:31:20 10° 322° (NW) 1,498 -0.3 -11.3°
Maximum altitude 19:34:26 34° 30° (NNE) 704 -2.9 -11.9°
Enters shadow 19:36:10 20° 83° (E) 1,016 -2.4 -12.2°
